Location: Cañada de la Miga
(34.7595°N, 106.2317°W)
Time: 01:12:06
(UTC+00:00)

Vanguard 1 - All Passes

Search period start: 07 December 2021 00:00
Search period end: 17 December 2021 00:00
Orbit: 653 x 3830 km, 34.3° (Epoch: 06 December)

Date Brightness Start Highest point End Pass type
(mag) Time Alt. Az. Time Alt. Az. Time Alt. Az.
07 Dec - 03:24:53 10° SSW 03:39:14 36° SE 03:58:41 10° ENE visible
07 Dec - 05:43:59 10° SW 06:03:40 72° SSE 06:26:45 10° ENE visible
07 Dec - 08:08:11 10° W 08:31:41 89° S 08:51:43 10° E visible
07 Dec - 10:35:36 10° WNW 10:58:59 75° SSW 11:14:04 10° ESE visible
07 Dec - 13:05:00 10° WNW 13:21:53 37° SW 13:32:28 10° SSE visible
08 Dec - 01:34:34 10° SE 01:38:51 11° ESE 01:43:36 10° ESE visible
08 Dec - 03:44:38 10° SSW 03:59:50 45° SE 04:20:57 10° ENE visible
08 Dec - 06:04:56 10° WSW 06:25:10 79° SSE 06:48:18 10° E visible
08 Dec - 08:29:48 10° W 08:53:31 88° S 09:13:03 10° E visible
08 Dec - 10:57:24 10° WNW 11:20:13 67° SSW 11:34:48 10° SE visible
08 Dec - 13:27:37 10° W 13:42:11 28° SW 13:51:56 10° S visible
09 Dec - 01:50:05 10° SSE 01:59:00 18° SE 02:10:28 10° E visible
09 Dec - 04:04:45 10° SW 04:20:37 55° SE 04:42:55 10° ENE visible
09 Dec - 06:26:05 10° WSW 06:46:50 84° SSE 07:09:50 10° E visible
09 Dec - 08:51:27 10° W 09:15:19 86° S 09:34:17 10° ESE visible
09 Dec - 11:19:14 10° WNW 11:41:14 58° SSW 11:55:19 10° SE visible
09 Dec - 13:51:00 10° W 14:02:20 20° SW 14:10:39 10° SSW daylight
10 Dec - 02:08:20 10° S 02:19:12 26° SE 02:34:21 10° E visible
10 Dec - 04:25:10 10° SW 04:41:36 64° SSE 05:04:43 10° ENE visible
10 Dec - 06:47:22 10° WSW 07:08:37 87° S 07:31:22 10° E visible
10 Dec - 09:13:07 10° W 09:37:00 82° SSW 09:55:25 10° ESE visible
10 Dec - 11:41:11 10° WNW 12:02:01 49° SW 12:15:35 10° SSE visible
10 Dec - 14:16:19 10° W 14:22:25 13° WSW 14:27:35 10° SW daylight
11 Dec - 02:27:31 10° SSW 02:39:29 34° SE 02:57:15 10° ENE visible
11 Dec - 04:45:50 10° SW 05:02:49 72° SSE 05:26:26 10° ENE visible
11 Dec - 07:08:46 10° W 07:30:28 89° S 07:52:52 10° E visible
11 Dec - 09:34:46 10° WNW 09:58:31 76° SSW 10:16:24 10° ESE visible
11 Dec - 12:03:21 10° WNW 12:22:36 39° SW 12:35:32 10° SSE visible
12 Dec - 02:47:15 10° SSW 02:59:57 43° SE 03:19:35 10° ENE visible
12 Dec - 05:06:42 10° WSW 05:24:14 79° SSE 05:48:08 10° E visible
12 Dec - 07:30:13 10° W 07:52:22 88° S 08:14:20 10° E visible
12 Dec - 09:56:27 10° WNW 10:19:52 68° SSW 10:37:12 10° SE visible
12 Dec - 12:25:54 10° W 12:43:00 31° SW 12:55:01 10° S visible
13 Dec - 00:53:37 10° SSE 01:00:07 15° ESE 01:08:24 10° E visible
13 Dec - 03:07:21 10° SW 03:20:36 53° SE 03:41:39 10° ENE visible
13 Dec - 05:27:45 10° WSW 05:45:49 84° SSE 06:09:49 10° E visible
13 Dec - 07:51:43 10° W 08:14:11 86° S 08:35:43 10° ESE visible
13 Dec - 10:18:10 10° WNW 10:41:00 59° SSW 10:57:46 10° SE visible
13 Dec - 12:49:09 10° W 13:03:16 23° SW 13:13:51 10° S visible
14 Dec - 01:11:35 10° S 01:20:13 23° SE 01:32:35 10° E visible
14 Dec - 03:27:43 10° SW 03:41:28 63° SSE 04:03:33 10° ENE visible
14 Dec - 05:48:55 10° W 06:07:33 88° S 06:31:31 10° E visible
14 Dec - 08:13:13 10° W 08:35:56 82° SSW 08:56:58 10° ESE visible
14 Dec - 10:40:01 10° WNW 11:01:55 50° SW 11:18:04 10° SSE visible
14 Dec - 13:13:51 10° W 13:23:27 15° WSW 13:31:22 10° SSW visible
15 Dec - 01:30:42 10° S 01:40:25 31° SE 01:55:33 10° E visible
15 Dec - 03:48:20 10° SW 04:02:34 71° SSE 04:25:23 10° ENE visible
15 Dec - 06:10:10 10° W 06:29:20 89° S 06:53:11 10° E visible
15 Dec - 08:34:43 10° WNW 08:57:31 76° SSW 09:18:03 10° ESE visible
15 Dec - 11:02:04 10° WNW 11:22:38 41° SW 11:38:01 10° SSE visible
16 Dec - 01:50:23 10° SSW 02:00:46 41° SE 02:17:57 10° ENE visible
16 Dec - 04:09:09 10° WSW 04:23:52 79° SSE 04:47:12 10° E visible
16 Dec - 06:31:28 10° W 06:51:11 88° S 07:14:48 10° E visible
16 Dec - 08:56:14 10° WNW 09:18:56 68° SSW 09:38:55 10° SE visible
16 Dec - 11:24:30 10° W 11:43:10 33° SW 11:57:31 10° S visible
